Location: Black Creek
(40.9000°S, 175.5500°E)
Time: 14:04:53
(UTC+00:00)

ARIANE 6 FM1 Upper Stage - Visible Passes

Search period start: 07 October 2024 00:00
Search period end: 17 October 2024 00:00
Orbit: 564 x 594 km, 62.0° (Epoch: 07 October)

Date Brightness Start Highest point End Pass type
(mag) Time Alt. Az. Time Alt. Az. Time Alt. Az.
07 Oct 3.1 15:26:34 57° SSW 15:26:34 57° SSW 15:30:24 10° SSE visible
07 Oct 5.0 17:04:42 10° SW 17:06:16 12° SSW 17:07:49 10° S visible
08 Oct 5.8 13:54:37 11° ESE 13:54:37 11° ESE 13:54:56 10° ESE visible
08 Oct 3.6 15:30:55 38° SW 15:30:55 38° SW 15:34:40 10° SSE visible
09 Oct 5.6 13:58:54 15° ESE 13:58:54 15° ESE 13:59:44 10° SE visible
09 Oct 4.1 15:35:10 26° SW 15:35:10 26° SW 15:38:49 10° SSE visible
10 Oct 5.4 14:03:06 18° SE 14:03:06 18° SE 14:04:17 10° SE visible
10 Oct 4.6 15:39:22 19° SW 15:39:41 19° SW 15:42:48 10° S visible
11 Oct 5.2 14:07:13 20° SSE 14:07:13 20° SSE 14:08:39 10° SE visible
11 Oct 5.0 15:43:30 13° SW 15:44:18 14° SW 15:46:33 10° S visible
12 Oct 5.1 14:11:17 21° SSE 14:11:17 21° SSE 14:12:53 10° SSE visible
12 Oct 5.3 15:48:40 10° SSW 15:48:57 10° SSW 15:49:16 10° SSW visible
13 Oct 5.1 14:15:17 20° S 14:15:17 20° S 14:16:58 10° SSE visible
14 Oct 5.2 14:19:13 18° S 14:19:13 18° S 14:20:56 10° SSE visible
15 Oct 5.3 14:23:06 15° SSW 14:23:06 15° SSW 14:24:43 10° S visible
16 Oct 5.5 14:26:55 12° SSW 14:26:55 12° SSW 14:28:10 10° S visible
